Weather History for Peoria, IL

Change the Weather History Date:

Sunday, September 18, 2011

  Actual Average Record
Temperature  
Mean Temperature 62 °F 65 °F  
Max Temperature 66 °F 76 °F 95 °F (1986)
Min Temperature 58 °F 54 °F 34 °F (1916)
Degree Days  
Heating Degree Days 3 3  
Month to date heating degree days 54 26  
Since 1 July heating degree days 54 32  
Cooling Degree Days 0 3  
Month to date cooling degree days 80 91  
Year to date cooling degree days 1249 998  
Growing Degree Days 12 (Base 50)    
Moisture  
Dew Point 60 °F    
Average Humidity 75    
Maximum Humidity 93    
Minimum Humidity 56    
Precipitation  
Precipitation 1.00 in 0.10 in 2.35 in (1899)
Month to date precipitation 2.18 1.96  
Year to date precipitation 30.18 26.91  
Snow  
Snow 0.00 in 0.00 in 0.00 in ()
Month to date snowfall 0.0 0.0  
Since 1 July snowfall 0.0 0.0  
Since 1 September snowfall 0.0 0.0  
Snow Depth 0.00 in    
Sea Level Pressure  
Sea Level Pressure 30.02 in    
Wind  
Wind Speed 7 mph (SSE)    
Max Wind Speed 12 mph    
Max Gust Speed 16 mph    
Visibility 6 miles    
Events Rain    
T = Trace of Precipitation, MM = Missing Value Source: NWS Daily Summary

Daily Weather History Graph

Daily Weather History Graph

Search for Another Location

Airport:

Trip Planner

Search our weather history database for the weather conditions in past years. The results will help you decide how hot, cold, wet, or windy it might be!

Date:

Astronomy

Sep. 18, 2011 Rise Set
Actual Time 6:42 AM CDT 7:03 PM CDT
Civil Twilight 6:14 AM CDT 7:30 PM CDT
Nautical Twilight 5:42 AM CDT 8:02 PM CDT
Astronomical Twilight 5:09 AM CDT 8:35 PM CDT
Moon 10:16 PM CDT (9/18) 12:41 PM CDT (9/18)
Length of Visible Light 13h 15m
Length of Day
12h 20m
Waning Gibbous, 68% of the Moon is Illuminated
Sep 18
Waning Gibbous
Sep 20
Last Quarter
Sep 27
New
Oct 3
First Quarter
Oct 11
Full

Hourly Weather History & Observations

Time (CDT) Temp. Dew Point Humidity Pressure Visibility Wind Dir Wind Speed Gust Speed Precip Events Conditions
12:54 AM 63.0 °F 46.0 °F 54% 30.14 in 10.0 mi ESE 8.1 mph - N/A   Overcast
1:54 AM 62.1 °F 48.0 °F 60% 30.15 in 10.0 mi SE 4.6 mph - N/A   Overcast
2:54 AM 60.1 °F 52.0 °F 75% 30.14 in 10.0 mi ESE 5.8 mph - 0.01 in Rain Light Rain
3:54 AM 59.0 °F 51.1 °F 75% 30.14 in 10.0 mi East 9.2 mph - 0.01 in Rain Light Rain
4:54 AM 59.0 °F 50.0 °F 72% 30.14 in 10.0 mi ESE 8.1 mph - N/A   Overcast
5:54 AM 60.8 °F 50.0 °F 68% 30.13 in 10.0 mi ESE 9.2 mph - N/A   Overcast
6:54 AM 60.1 °F 51.1 °F 72% 30.13 in 10.0 mi ESE 5.8 mph - N/A   Overcast
8:54 AM 57.9 °F 53.1 °F 84% 30.14 in 6.0 mi SE 6.9 mph - 0.02 in Rain Light Rain
9:54 AM 59.0 °F 55.4 °F 88% 30.13 in 10.0 mi ESE 5.8 mph - N/A   Overcast
10:54 AM 61.0 °F 57.0 °F 87% 30.11 in 9.0 mi SE 5.8 mph - 0.00 in Rain Light Rain
11:54 AM 63.0 °F 59.0 °F 87% 30.09 in 9.0 mi SE 8.1 mph - 0.02 in Rain Light Rain
12:54 PM 63.0 °F 59.0 °F 87% 30.07 in 10.0 mi SE 8.1 mph - 0.00 in   Overcast
1:54 PM 64.0 °F 59.0 °F 84% 30.04 in 10.0 mi SE 8.1 mph - N/A   Overcast
2:13 PM 64.4 °F 59.0 °F 83% 30.04 in 10.0 mi SE 9.2 mph - N/A   Overcast
2:50 PM 64.4 °F 60.8 °F 88% 30.01 in 10.0 mi East 9.2 mph - N/A   Overcast
2:54 PM 64.9 °F 60.1 °F 84% 30.00 in 10.0 mi ESE 6.9 mph - N/A   Overcast
3:54 PM 64.9 °F 61.0 °F 87% 29.99 in 10.0 mi SE 5.8 mph - 0.00 in Rain Light Rain
4:09 PM 64.4 °F 60.8 °F 88% 29.99 in 8.0 mi SE 6.9 mph - 0.00 in Rain Light Rain
4:52 PM 66.2 °F 62.6 °F 88% 29.98 in 7.0 mi SSE 6.9 mph - 0.00 in Rain Light Rain
4:54 PM 66.0 °F 62.1 °F 87% 29.98 in 5.0 mi SSE 5.8 mph - 0.00 in Rain Light Rain
5:02 PM 64.4 °F 62.6 °F 94% 29.98 in 0.8 mi SSE 5.8 mph - 0.01 in Rain Light Rain
5:16 PM 64.4 °F 62.6 °F 94% 29.98 in 0.8 mi SSE 6.9 mph - 0.02 in Rain Light Rain
5:54 PM 64.9 °F 64.0 °F 97% 29.96 in 0.8 mi SSE 8.1 mph - 0.03 in   Overcast
6:01 PM 64.4 °F 64.4 °F 100% 29.96 in 4.0 mi SSE 6.9 mph - N/A   Overcast
6:54 PM 66.0 °F 64.0 °F 93% 29.94 in 4.0 mi South 9.2 mph - N/A   Overcast
7:54 PM 66.0 °F 64.0 °F 93% 29.94 in 4.0 mi South 9.2 mph - N/A   Overcast
8:19 PM 66.2 °F 64.4 °F 94% 29.95 in 5.0 mi South 8.1 mph - N/A   Overcast
8:54 PM 66.2 °F 64.4 °F 94% 29.96 in 5.0 mi South 6.9 mph - N/A   Overcast
9:28 PM 66.2 °F 64.4 °F 94% 29.97 in 4.0 mi South 8.1 mph - 0.00 in Rain Light Rain
9:54 PM 66.0 °F 64.9 °F 96% 29.96 in 4.0 mi South 5.8 mph - 0.00 in   Overcast
10:13 PM 66.2 °F 64.4 °F 94% 29.96 in 2.0 mi South 6.9 mph - 0.03 in Rain Rain
10:21 PM 66.2 °F 64.4 °F 94% 29.96 in 2.5 mi South 5.8 mph - 0.04 in Rain Light Rain
10:30 PM 66.2 °F 64.4 °F 94% 29.96 in 2.0 mi South 4.6 mph - 0.07 in Rain Heavy Rain
10:44 PM 66.2 °F 64.4 °F 94% 29.95 in 1.5 mi SW 3.5 mph - 0.14 in Rain Heavy Rain
10:51 PM 66.2 °F 64.4 °F 94% 29.95 in 1.5 mi Calm Calm - 0.17 in Rain Heavy Rain
10:54 PM 66.0 °F 64.9 °F 96% 29.95 in 1.5 mi Calm Calm - 0.19 in Rain Heavy Rain
11:38 PM 66.2 °F 64.4 °F 94% 29.94 in 1.2 mi WSW 3.5 mph - N/A Rain Heavy Rain
11:54 PM 66.0 °F 64.9 °F 96% 29.94 in 1.2 mi West 3.5 mph - 0.42 in Rain Heavy Rain